This is the latest recevied weather packets stored in our database for station/object SP6YY-15. If no packets are shown the sender has not sent any weather packets the latest 10 day(s).
| Time | Temp. | Humidity | Pressure | Rain* | Wind** | Luminosity | Snow |
|---|---|---|---|---|---|---|---|
| 1777377943 | 43.33° C | 15% | 1010.7 hPa | - | - | - | - |
| 1777377643 | 42.78° C | 15% | 1010.9 hPa | - | - | - | - |
| 1777377343 | 42.22° C | 15% | 1010.8 hPa | - | - | - | - |
| 1777376443 | 41.11° C | 17% | 1010.9 hPa | - | - | - | - |
| 1777376143 | 40.56° C | 16% | 1011 hPa | - | - | - | - |
| 1777375842 | 40° C | 17% | 1011 hPa | - | - | - | - |
| 1777374942 | 38.33° C | 17% | 1011.2 hPa | - | - | - | - |
| 1777374643 | 37.78° C | 18% | 1011.2 hPa | - | - | - | - |
| 1777374342 | 37.22° C | 18% | 1011.2 hPa | - | - | - | - |
| 1777373442 | 36.11° C | 18% | 1011.4 hPa | - | - | - | - |
| 1777373142 | 35.56° C | 18% | 1011.4 hPa | - | - | - | - |
| 1777372842 | 35° C | 19% | 1011.2 hPa | - | - | - | - |
| 1777372541 | 34.44° C | 18% | 1011.3 hPa | - | - | - | - |
| 1777372242 | 33.89° C | 19% | 1011.4 hPa | - | - | - | - |
| 1777371942 | 33.33° C | 19% | 1011.4 hPa | - | - | - | - |
| 1777371341 | 32.78° C | 19% | 1011.6 hPa | - | - | - | - |
| 1777370742 | 31.67° C | 19% | 1011.6 hPa | - | - | - | - |
| 1777370442 | 31.11° C | 19% | 1011.6 hPa | - | - | - | - |
| 1777369842 | 30.56° C | 19% | 1011.6 hPa | - | - | - | - |
| 1777369541 | 30° C | 19% | 1011.6 hPa | - | - | - | - |
| 1777369241 | 29.44° C | 19% | 1011.7 hPa | - | - | - | - |
| 1777368942 | 28.89° C | 19% | 1011.7 hPa | - | - | - | - |
| 1777368341 | 28.33° C | 19% | 1011.7 hPa | - | - | - | - |
| 1777367741 | 27.22° C | 19% | 1011.7 hPa | - | - | - | - |
| 1777367441 | 27.22° C | 19% | 1011.7 hPa | - | - | - | - |
* Rain since midnight (hover to see other rain measurements)
** Current wind speed in m/s (hover to see current wind gust speed)